Wind_Speed
28 29 33 33 27 27 28 29 28 21 6 7 7 10 13 16 22 20 22 26 30 35 39 42 47 51 56 59 64 68 72 76 80 82 85 89 92 92 92 93 92 89 78
26 27 24 24 29 33 18 8 10 7 8 12 12 13 15 16 18 22 27 31 34 38 43 47 53 58 62 66 70 73 78 83 87 90 92 94 95 94 90 85 75 65 52
22 27 28 24 18 9 5 4 6 9 13 14 15 16 16 19 22 27 31 36 40 45 50 54 58 62 67 71 75 79 84 91 94 95 93 92 87 81 73 63 56 44 32
29 26 27 19 8 9 10 11 13 14 15 15 15 18 21 24 27 32 36 41 46 50 54 58 63 67 71 74 76 80 83 85 85 84 80 72 66 60 54 43 36 32 33
14 10 9 7 10 13 13 15 16 16 16 14 17 20 24 28 32 36 40 44 49 54 59 63 66 67 65 67 69 71 73 73 70 63 57 52 45 37 33 31 32 34 35
8 10 12 14 15 16 16 16 18 17 16 16 20 24 27 31 35 39 42 49 54 58 63 64 62 58 53 50 50 53 52 50 48 45 39 35 31 30 29 33 36 36 37
12 13 15 16 17 18 18 18 18 16 17 19 23 26 29 33 37 41 47 53 58 63 65 59 48 40 40 40 39 38 38 39 39 37 34 33 32 31 33 35 37 39 39
15 16 18 19 19 19 17 17 15 17 19 22 24 28 32 35 42 47 52 58 62 63 55 43 37 37 39 39 38 37 37 37 37 36 36 35 34 33 35 37 39 40 41
18 18 19 20 19 17 15 15 17 19 22 24 28 31 35 39 46 50 55 59 62 56 46 37 35 38 39 39 38 36 37 38 38 38 38 37 36 37 38 38 39 41 42
20 20 19 19 16 14 15 16 19 22 24 27 30 33 36 42 48 50 55 60 59 51 38 37 38 38 39 39 37 35 33 35 35 36 36 37 39 40 40 40 40 41 42
22 22 20 16 15 15 16 18 21 22 25 28 30 34 38 44 49 51 55 58 50 38 35 38 40 40 38 38 38 36 35 34 34 35 36 36 37 38 39 40 41 42 42
21 21 19 18 16 16 17 19 21 23 26 28 32 36 40 45 49 51 55 56 48 36 36 40 41 39 37 37 38 38 37 37 36 35 36 37 37 38 38 38 39 40 41
21 21 20 19 19 18 18 20 21 23 26 29 33 37 40 45 48 51 54 55 46 38 38 39 39 37 35 35 36 37 38 39 39 38 38 37 38 39 39 39 39 40 40
23 21 21 20 20 19 19 20 22 24 27 30 34 37 42 46 48 51 53 50 44 39 38 37 36 37 38 39 38 37 36 35 34 35 36 38 39 40 40 41 40 40 40
24 22 22 20 21 21 20 20 22 25 28 31 34 37 43 46 47 49 51 46 39 37 37 36 37 37 37 38 36 32 30 29 30 33 33 33 31 31 32 35 39 41 41
24 23 22 21 20 21 20 21 22 25 27 31 34 37 42 45 47 49 49 42 37 36 35 34 33 34 34 31 28 30 32 36 36 33 34 33 31 30 29 33 34 32 31
23 23 23 22 21 20 20 21 22 25 27 30 33 37 42 45 47 48 47 38 35 34 32 30 30 29 28 28 30 32 34 34 33 32 33 32 29 26 30 30 27 25 24
24 23 24 22 21 20 20 21 23 25 27 30 33 37 42 45 46 47 45 36 32 31 28 27 27 24 25 27 29 31 32 32 32 32 32 32 29 25 25 23 20 18 19
24 24 25 23 21 21 21 21 23 26 29 32 34 37 40 44 46 45 41 33 30 28 25 25 24 21 21 23 27 31 33 34 33 31 28 28 30 28 22 19 18 15 14
24 23 25 23 21 21 22 22 23 26 28 31 34 37 40 43 45 45 40 30 27 26 23 22 21 18 21 26 27 32 33 36 32 30 29 26 27 26 23 20 15 13 11
24 24 25 22 21 22 23 23 24 26 29 31 34 36 39 42 45 44 40 29 26 24 21 20 18 18 22 25 30 32 35 34 37 31 26 27 25 24 23 18 13 10 8
24 23 24 23 20 22 24 23 24 26 28 31 33 35 39 41 44 44 37 28 25 23 20 19 18 18 20 25 29 31 33 33 36 35 29 25 25 23 21 18 15 10 5
24 23 24 23 21 22 24 24 24 26 28 31 34 36 38 41 43 44 37 27 24 22 20 18 17 17 20 25 28 29 31 31 32 33 30 25 23 22 20 16 12 7 1
23 23 23 22 21 23 24 23 24 26 28 31 34 36 38 41 43 44 37 27 23 21 19 18 17 19 20 24 27 28 29 30 31 32 31 26 22 19 18 17 13 10 10
23 23 23 21 21 22 23 23 24 26 28 31 34 36 39 40 43 44 37 27 22 21 20 19 19 20 20 22 25 26 27 29 29 30 31 27 22 19 17 15 14 13 13
23 23 22 21 20 21 22 22 24 26 29 31 34 36 38 40 43 44 37 27 21 21 20 20 20 20 20 21 24 25 27 27 28 28 28 28 24 20 19 20 18 17 17
Wind_Direction
257 263 265 275 292 297 294 296 275 277 255 247 244 252 261 266 260 276 281 278 279 282 284 285 286 287 286 286 285 283 282 282 280 278 276 276 276 277 277 279 283 284 288
273 281 283 280 276 282 282 252 243 253 274 275 276 278 280 278 279 286 288 289 291 292 293 292 290 288 287 286 284 283 281 278 276 275 275 276 279 281 282 284 286 285 281
262 272 269 267 276 284 285 305 292 272 273 283 290 291 295 297 298 297 298 300 300 298 295 293 292 291 290 287 284 282 278 275 276 276 278 279 281 284 285 284 280 272 246
250 248 267 257 287 303 294 284 278 279 285 289 289 294 299 301 303 304 305 303 301 300 300 300 297 294 292 289 284 280 278 277 276 279 282 284 283 283 281 273 259 249 253
266 304 311 298 288 282 284 283 285 284 281 287 292 297 304 307 307 306 306 306 307 309 307 304 300 297 292 286 283 282 279 280 283 286 285 287 284 274 262 252 251 255 257
290 285 293 290 286 284 286 289 287 284 288 295 302 303 303 308 308 309 312 311 312 312 310 310 306 302 299 296 290 288 288 289 287 287 286 279 272 263 257 256 256 257 258
296 294 288 287 286 285 280 279 274 281 288 296 299 302 306 309 310 313 316 315 315 317 317 315 312 314 315 316 311 302 297 294 291 288 283 279 275 273 269 263 259 258 259
292 292 293 290 288 282 276 274 273 283 292 298 303 308 311 316 318 320 319 323 323 322 322 320 319 317 314 314 311 305 297 294 290 288 283 280 278 275 272 268 264 263 262
297 295 293 292 288 280 276 278 288 296 301 306 310 313 317 319 322 322 325 327 328 330 324 317 317 316 314 311 307 300 295 292 289 287 285 283 280 276 272 270 269 266 265
301 301 292 289 281 275 279 288 295 300 305 309 312 320 324 325 324 326 330 333 333 329 320 321 320 316 312 309 307 304 299 294 292 290 287 282 278 275 273 271 270 269 269
295 300 294 280 272 278 285 291 298 303 308 311 321 326 330 328 329 330 336 338 334 325 319 320 320 318 313 309 308 305 301 297 293 290 286 283 280 278 276 275 273 272 271
297 293 292 275 272 278 285 294 301 306 310 318 328 331 332 331 332 334 339 340 334 324 320 321 320 317 314 310 308 307 305 301 297 291 287 284 281 279 277 276 274 272 271
305 293 295 277 279 284 293 301 305 311 317 327 331 333 334 333 335 338 340 340 332 325 322 320 319 319 319 317 313 309 305 303 300 297 293 289 284 280 276 274 271 270 269
305 298 295 283 283 292 300 306 308 314 322 331 333 336 335 334 337 340 341 337 329 324 325 325 323 323 323 322 319 317 315 313 309 306 301 294 288 283 279 276 273 270 268
301 301 294 287 287 294 301 307 312 319 327 332 334 337 338 336 337 341 341 336 328 327 327 326 327 329 330 331 334 336 336 332 328 325 322 313 304 301 295 287 280 274 269
296 300 295 289 290 296 304 309 314 320 327 331 334 337 339 339 339 341 340 334 329 329 328 331 333 335 339 344 345 340 336 332 328 324 325 318 309 300 297 296 286 285 276
290 299 299 292 293 299 306 308 314 319 325 328 332 337 340 340 339 340 339 331 329 328 330 335 337 342 347 346 339 335 335 337 336 334 334 332 322 308 313 307 293 282 274
288 294 301 296 296 302 306 310 314 319 324 327 331 338 341 339 340 340 338 330 327 328 330 336 337 343 348 348 348 348 346 340 338 339 339 344 340 329 318 321 309 291 288
287 292 298 297 297 302 306 310 315 319 323 327 331 337 339 338 340 339 336 329 327 327 327 334 335 341 348 351 351 349 347 344 343 342 339 342 346 348 341 323 320 313 304
283 290 296 297 296 302 306 310 316 319 322 326 330 335 338 338 341 338 337 329 325 325 324 329 332 338 343 343 345 343 347 352 347 342 345 338 334 346 345 356 348 331 318
279 288 294 295 296 303 306 309 315 319 322 325 329 334 337 338 340 338 337 328 323 322 320 322 325 333 338 340 341 343 345 347 351 346 341 347 345 347 348 338 340 358 0
273 283 293 293 295 302 306 309 314 318 322 324 329 333 335 338 340 338 337 326 321 318 316 318 316 326 334 338 340 341 343 343 346 350 346 341 347 347 348 351 352 353 353
271 278 288 291 293 301 305 310 313 318 321 324 329 333 334 337 339 338 337 326 318 315 310 315 311 317 325 333 337 339 343 347 347 352 350 346 342 345 350 347 343 345 46
272 275 284 287 292 301 305 311 314 318 320 323 328 333 335 337 338 338 336 326 316 313 306 304 304 309 319 330 335 339 341 345 349 352 352 347 343 339 339 341 338 312 281
272 273 281 282 289 300 305 311 315 319 320 323 327 333 336 337 338 338 336 326 314 314 307 299 297 301 312 324 333 337 339 342 342 346 351 347 343 338 334 330 328 323 311
267 270 277 278 288 298 304 311 316 318 321 326 330 333 336 337 339 339 338 326 314 314 314 304 296 298 304 312 324 332 337 339 341 342 345 348 345 335 328 325 323 320 317
Height
5737 5738 5739 5740 5740 5739 5739 5738 5738 5738 5741 5742 5741 5741 5742 5742 5741 5742 5743 5743 5742 5741 5738 5735 5731 5727 5722 5717 5709 5702 5695 5687 5679 5675 5665 5657 5651 5646 5645 5640 5635 5634 5633
5733 5735 5735 5735 5736 5735 5733 5734 5733 5734 5736 5738 5737 5737 5738 5737 5737 5737 5736 5735 5733 5730 5727 5723 5718 5712 5705 5697 5689 5681 5672 5662 5653 5647 5642 5634 5627 5623 5619 5621 5616 5615 5617
5731 5731 5731 5732 5731 5729 5729 5729 5730 5731 5731 5732 5732 5731 5730 5730 5730 5729 5728 5725 5722 5718 5714 5708 5700 5692 5684 5674 5664 5655 5647 5638 5628 5621 5616 5610 5608 5601 5600 5602 5600 5601 5604
5727 5727 5726 5725 5725 5726 5726 5727 5727 5727 5726 5725 5726 5726 5726 5725 5723 5722 5719 5715 5710 5704 5697 5688 5680 5669 5659 5649 5639 5630 5620 5611 5605 5598 5594 5592 5588 5584 5585 5587 5588 5591 5594
5723 5721 5723 5722 5722 5723 5722 5723 5723 5722 5722 5720 5721 5721 5719 5717 5716 5712 5708 5703 5695 5687 5679 5669 5658 5647 5637 5626 5615 5605 5596 5590 5585 5582 5579 5577 5574 5573 5574 5577 5580 5583 5585
5721 5720 5720 5720 5719 5719 5718 5717 5717 5716 5716 5714 5713 5713 5712 5709 5706 5702 5695 5688 5680 5672 5661 5648 5635 5623 5614 5604 5596 5587 5582 5578 5573 5570 5568 5568 5566 5566 5567 5569 5572 5573 5575
5719 5718 5718 5717 5715 5714 5713 5712 5713 5711 5711 5709 5708 5706 5704 5702 5696 5691 5682 5673 5663 5651 5637 5625 5614 5604 5597 5590 5583 5578 5573 5568 5564 5563 5562 5560 5559 5559 5560 5561 5562 5563 5564
5714 5713 5712 5711 5710 5709 5708 5708 5708 5707 5705 5703 5701 5698 5694 5690 5683 5674 5666 5654 5643 5631 5618 5607 5601 5595 5588 5582 5576 5570 5566 5562 5558 5555 5553 5552 5551 5550 5550 5550 5550 5552 5553
5710 5707 5706 5705 5703 5703 5702 5702 5701 5699 5697 5695 5691 5688 5684 5678 5669 5661 5650 5640 5627 5614 5605 5599 5594 5587 5579 5573 5568 5563 5558 5552 5547 5545 5543 5542 5541 5539 5538 5538 5539 5539 5540
5706 5704 5702 5700 5698 5698 5698 5696 5694 5693 5690 5688 5685 5679 5672 5666 5658 5649 5637 5625 5614 5605 5596 5590 5584 5578 5571 5564 5558 5553 5548 5542 5538 5536 5533 5530 5528 5528 5527 5527 5526 5526 5526
5700 5699 5697 5695 5694 5693 5692 5691 5689 5687 5684 5681 5676 5670 5662 5655 5646 5637 5626 5614 5603 5596 5589 5583 5576 5568 5561 5555 5548 5544 5539 5534 5530 5526 5523 5521 5518 5516 5515 5514 5513 5512 5512
5695 5694 5692 5691 5689 5688 5686 5685 5682 5680 5677 5673 5665 5659 5652 5644 5635 5626 5615 5604 5595 5588 5581 5574 5568 5560 5553 5546 5540 5534 5528 5524 5519 5516 5513 5510 5507 5505 5503 5501 5500 5499 5498
5690 5688 5686 5685 5684 5682 5679 5677 5675 5672 5668 5663 5657 5650 5643 5635 5627 5616 5604 5594 5586 5579 5573 5567 5559 5552 5545 5538 5532 5526 5520 5514 5509 5504 5500 5497 5494 5491 5489 5488 5487 5486 5485
5684 5682 5680 5678 5677 5675 5673 5671 5668 5664 5659 5653 5648 5642 5634 5626 5617 5606 5595 5585 5577 5570 5563 5557 5551 5545 5537 5530 5523 5516 5509 5503 5498 5493 5488 5483 5480 5477 5475 5473 5472 5471 5471
5679 5676 5674 5671 5670 5668 5667 5664 5660 5655 5650 5645 5640 5633 5625 5617 5609 5597 5586 5577 5570 5564 5557 5551 5544 5537 5530 5522 5515 5509 5503 5497 5492 5486 5481 5475 5470 5466 5462 5459 5457 5456 5456
5673 5671 5668 5665 5664 5662 5659 5656 5652 5648 5643 5638 5632 5625 5617 5609 5599 5588 5578 5570 5564 5557 5551 5544 5538 5532 5525 5518 5512 5506 5500 5493 5486 5480 5473 5466 5461 5456 5453 5449 5446 5443 5443
5667 5665 5662 5660 5657 5655 5652 5649 5645 5641 5636 5631 5625 5617 5608 5600 5590 5580 5571 5564 5557 5551 5545 5539 5533 5527 5521 5515 5510 5503 5496 5489 5482 5475 5467 5460 5453 5448 5444 5438 5435 5433 5433
5660 5659 5657 5654 5651 5649 5645 5642 5638 5634 5629 5624 5617 5608 5600 5592 5583 5573 5565 5558 5552 5546 5540 5535 5529 5524 5519 5513 5507 5500 5493 5485 5478 5470 5463 5456 5449 5443 5438 5433 5429 5428 5427
5653 5652 5650 5648 5645 5642 5639 5635 5630 5626 5621 5616 5609 5602 5593 5585 5576 5566 5558 5551 5545 5541 5536 5531 5526 5521 5516 5511 5504 5498 5490 5483 5475 5467 5460 5454 5448 5441 5434 5430 5427 5424 5422
5646 5645 5643 5641 5639 5636 5632 5628 5624 5620 5615 5609 5602 5594 5587 5579 5570 5561 5552 5546 5540 5535 5531 5527 5523 5518 5513 5508 5502 5496 5488 5481 5472 5465 5458 5452 5446 5440 5435 5429 5425 5422 5420
5639 5638 5637 5635 5633 5630 5626 5621 5617 5612 5608 5603 5596 5588 5579 5571 5563 5554 5546 5539 5535 5530 5526 5523 5519 5515 5511 5506 5500 5493 5486 5479 5471 5463 5457 5451 5445 5439 5434 5430 5426 5424 5422
5632 5631 5630 5628 5626 5623 5619 5615 5611 5606 5602 5596 5589 5581 5573 5565 5557 5548 5540 5534 5529 5526 5522 5518 5515 5511 5507 5503 5497 5491 5484 5477 5470 5462 5455 5450 5445 5440 5435 5431 5428 5425 5423
5625 5624 5623 5622 5620 5616 5613 5609 5605 5600 5596 5590 5583 5575 5567 5559 5551 5542 5534 5528 5524 5520 5517 5514 5511 5508 5504 5500 5495 5489 5483 5476 5469 5462 5454 5449 5444 5440 5436 5433 5430 5428 5427
5617 5617 5616 5615 5613 5610 5607 5603 5599 5594 5590 5583 5576 5569 5562 5554 5545 5536 5528 5522 5518 5514 5511 5509 5507 5504 5500 5496 5491 5486 5480 5474 5468 5461 5454 5449 5444 5440 5437 5433 5430 5429 5428
5610 5610 5610 5608 5607 5604 5601 5597 5593 5588 5583 5577 5570 5563 5556 5548 5540 5531 5523 5516 5512 5509 5505 5503 5501 5498 5495 5492 5487 5483 5477 5472 5466 5460 5454 5448 5443 5439 5435 5432 5430 5427 5425
5603 5604 5603 5602 5600 5598 5595 5591 5587 5582 5577 5571 5565 5558 5551 5543 5535 5526 5517 5510 5506 5503 5500 5497 5495 5493 5490 5487 5483 5479 5474 5469 5464 5458 5452 5447 5442 5437 5434 5430 5427 5425 5422